W0ZMA Weather Reports


Display with metric or nautical units.
time (UTC)temp
F
wind
direction
speed
MPH
gust
MPH
rain 1hr
in
rain 24hr
in
rain mn
in
humidity
%
barometer
mb
20260507024534 51 267 0.0 0.0 0.42 1.50 1.12 96 1014.1
20260507023039 51 267 0.0 0.0 3.02 1.50 1.12 96 1013.5
20260507021534 51 267 0.0 0.0 3.19 1.49 1.11 97 1013.4
20260507020038 52 267 0.0 0.0 3.19 1.49 1.11 96 1013.3
20260507014541 52 267 0.0 0.0 2.74 1.58 1.07 96 1014.1
20260507013031 52 267 0.0 0.0 0.10 1.32 8.07 96 1013.9
20260507011532 52 267 0.0 0.0 0.00 1.31 7.97 96 1013.8
20260507010031 52 267 0.0 0.0 0.00 1.31 7.97 96 1014.0
20260507004536 52 267 0.0 0.0 0.00 2.04 7.97 96 1014.3
20260507003031 52 267 0.0 0.0 0.00 2.04 7.97 96 1014.3
20260507001527 52 267 0.0 0.0 0.00 2.04 7.97 96 1013.8
20260507000027 53 267 0.0 0.0 0.07 2.04 7.97 95 1012.8
20260506234535 53 267 0.0 0.0 0.07 3.18 7.97 95 1012.8
20260506233025 53 267 0.0 0.0 0.07 3.18 7.97 96 1012.2
20260506231532 53 268 0.0 0.0 0.86 3.18 7.97 96 1012.0
20260506230023 53 271 0.0 0.0 2.29 3.18 7.90 95 1012.2
20260506224527 53 271 0.0 0.0 2.29 3.59 7.90 95 1012.7
20260506223037 54 310 0.0 0.0 2.31 3.59 7.90 94 1013.2
20260506221522 54 310 0.0 0.0 1.52 3.52 7.11 93 1013.9
20260506220025 54 310 0.0 0.0 0.01 3.36 5.60 93 1013.1
20260506214522 54 144 0.0 0.0 0.01 3.36 5.60 93 1012.6
20260506213021 54 143 0.0 0.0 0.00 3.36 5.59 92 1013.2
20260506211526 54 267 0.0 1.0 0.00 3.36 5.59 91 1013.1
20260506210022 54 176 0.0 2.0 0.00 3.36 5.59 90 1013.3
20260506204519 55 305 0.0 3.0 0.00 3.36 5.59 92 1012.9
20260506203025 53 296 0.0 0.0 0.00 3.36 5.59 94 1012.5
20260506201530 53 296 0.0 3.0 0.00 3.36 5.59 93 1013.2
20260506200015 53 296 0.0 2.0 0.00 3.36 5.59 93 1013.6
20260506194515 53 298 0.0 2.0 0.00 3.36 5.59 95 1013.4
20260506193014 53 306 0.0 0.0 0.00 3.36 5.59 95 1012.9
20260506191514 53 305 0.0 3.0 0.00 3.36 5.59 96 1013.0
20260506190013 52 323 0.0 0.0 0.01 3.36 5.59 96 1013.0
20260506184512 52 321 0.0 1.0 0.01 3.38 5.59 96 1013.2
20260506183019 52 321 0.0 0.0 0.01 3.38 5.59 96 1013.1
20260506181511 52 321 0.0 3.0 0.01 3.38 5.59 96 1013.2
20260506180013 52 173 0.0 0.0 0.00 3.38 5.58 95 1013.4
20260506174511 52 176 0.0 1.0 0.00 3.72 5.58 96 1013.7
20260506173008 52 178 0.0 1.0 0.00 3.72 5.58 95 1013.6
20260506171506 52 178 0.0 0.0 0.00 3.72 5.58 95 1013.3
20260506170005 52 313 0.0 1.0 0.00 3.72 5.58 96 1012.8
20260506164506 51 316 0.0 1.0 0.00 3.72 5.58 96 1012.3
20260506163003 51 327 0.0 8.0 0.00 3.72 5.58 96 1012.2
20260506161502 51 267 0.0 4.0 0.00 3.72 5.58 96 1012.6
20260506160002 51 284 0.0 1.0 0.00 3.72 5.58 96 1012.6
20260506154606 51 284 0.0 0.0 0.00 3.72 5.58 97 1012.8
20260506153103 51 285 0.0 0.0 0.00 3.72 5.58 96 1013.1
20260506151558 51 285 0.0 0.0 0.00 3.72 5.58 96 1013.1
20260506150100 51 285 0.0 0.0 0.00 3.72 5.58 96 1013.0
20260506144605 51 286 0.0 0.0 0.00 3.72 5.58 96 1012.3
20260506143100 51 286 0.0 0.0 0.00 3.72 5.58 96 1012.3
20260506141551 51 286 0.0 2.0 0.00 3.72 5.58 96 1012.1
20260506140050 51 291 0.0 0.0 0.00 3.72 5.58 97 1011.7
20260506134546 51 271 0.0 2.0 0.00 3.72 5.58 96 1011.3
20260506133044 51 308 0.0 0.0 0.00 3.72 5.58 97 1010.9
20260506131543 51 309 0.0 0.0 0.00 3.72 5.58 97 1010.5
20260506130042 50 309 0.0 0.0 0.00 3.72 5.58 96 1010.2
20260506124541 50 311 0.0 2.0 0.03 3.72 5.58 96 1010.0
20260506123039 50 313 0.0 1.0 0.03 3.72 5.58 96 1010.3
20260506121537 51 303 0.0 0.0 0.04 3.72 5.58 96 1009.7
20260506120041 50 303 0.0 0.0 0.04 3.72 5.58 96 1010.1
20260506114534 51 303 0.0 0.0 0.01 3.72 5.55 96 1010.8
20260506113033 51 302 0.0 2.0 0.01 3.72 5.55 96 1009.7
20260506111529 51 303 0.0 5.0 0.01 3.72 5.54 96 1009.0
20260506110031 51 300 0.0 2.0 0.22 3.72 5.54 96 1009.4
20260506104527 51 339 0.0 0.0 0.22 3.72 5.54 96 1009.6
20260506103029 51 339 0.0 1.0 0.22 3.72 5.54 95 1009.5
20260506101525 51 339 0.0 3.0 0.28 3.72 5.53 95 1008.8
20260506100027 51 340 0.0 1.0 0.10 3.69 5.32 95 1008.7
20260506094522 51 315 0.0 0.0 0.16 3.69 5.32 95 1008.3
20260506093022 52 309 0.0 1.0 0.17 3.69 5.32 94 1008.6
20260506091519 52 262 0.0 4.0 0.10 3.69 5.25 94 1007.8
20260506090019 53 325 0.0 3.0 1.34 3.68 5.22 95 1008.0
20260506084514 53 279 0.0 4.0 2.96 3.68 5.16 95 1008.1
20260506083014 54 337 0.0 4.0 3.06 3.68 5.15 94 1008.0
20260506081510 54 296 0.0 5.0 5.03 3.68 5.15 93 1007.4
20260506073101 62 282 0.0 7.0 2.09 3.37 2.09 88 1006.7
20260506071554 66 265 0.0 0.0 0.12 3.17 0.12 91 1005.9
20260506061554 70 168 2.0 11.0 0.00 3.16 0.00 79 1004.8
20260506044543 69 97 1.0 7.0 1.52 3.16 3.16 80 1005.5
20260506043039 68 140 2.0 10.0 3.27 3.16 3.16 81 1005.4
20260506041533 68 150 2.0 11.0 3.82 3.16 3.16 81 1005.6
20260506040027 67 134 2.0 7.0 2.91 3.07 3.07 83 1005.6
20260506034528 67 140 1.0 4.0 2.31 3.01 3.01 84 1006.0
20260506033026 68 167 1.0 11.0 0.55 2.84 2.84 83 1006.0
20260506031533 68 96 1.0 10.0 0.00 2.78 2.78 80 1006.3
20260506030029 68 88 3.0 10.0 0.00 2.78 2.78 80 1006.2